Regional Weather Roundup
Issued by NWS

Home | Current Version | Previous Version | Graphics & Text | Print | Product List | Glossary On
Versions: 1 2 3 4 5 6 7 8 9 10 11 12 13 14 15 16 17 18 19 20 21 22 23 24 25 26 27 28 29 30 31 32 33 34 35 36 37 38 39 40 41 42 43 44 45 46 47 48 49 50
000
ASUS43 KDMX 241906
RWRIA

WEATHER ROUNDUP FOR IOWA
NATIONAL WEATHER SERVICE DES MOINES IA
200 PM CDT WED MAY 24 2017

NOTE: "FAIR" INDICATES FEW OR NO CLOUDS BELOW 12,000 FEET WITH NO
SIGNIFICANT WEATHER AND/OR OBSTRUCTIONS TO VISIBILITY.

* - THESE STATIONS ARE NOT NWS STATIONS...THUS NOT UNDER NWS
QUALITY CONTROL.  THEY ALSO DO NOT REPORT WEATHER SUCH
AS PRECIPITATION OR FOG.

IAZ001>003-012>014-020>022-031>034-043>046-242000-
   NORTHWEST IOWA

CITY           SKY/WX    TMP DP  RH WIND       PRES   REMARKS
CARROLL *      PTSUNNY   63  50  63 N12G17    29.71S
CHEROKEE *     PTSUNNY   62  47  57 NE10      29.72F
DENISON *      CLOUDY    61  46  59 N6G15     29.73S
LE MARS *      PTSUNNY   63  46  55 VRB5      29.73F
ORANGE CITY *  PTSUNNY   61  46  59 NE5       29.73F
SHELDON *      PTSUNNY   59  43  55 N8        29.71F
SIOUX CITY     MOSUNNY   64  47  53 N7        29.73F
SPENCER        CLOUDY    61  44  53 N9        29.73S
STORM LAKE *     N/A     61  43  51 NE13      29.72F
$$

IAZ055>058-069>071-079>083-090>094-242000-
   SOUTHWEST IOWA

CITY           SKY/WX    TMP DP  RH WIND       PRES   REMARKS
ATLANTIC *     PTSUNNY   63  50  63 N7G15     29.70F
AUDUBON *      PTSUNNY   61  48  63 N10G16    29.71F
CLARINDA *     MOSUNNY   64  48  55 NE13G21   29.72F
COUNCIL BLFS *   N/A     63  46  55 N8G15     29.71F
CRESTON *      PTSUNNY   57  50  77 N16       29.71S
HARLAN  *      PTSUNNY   63  48  59 N9G16     29.74F
LAMONI         CLOUDY    61  52  72 N15G22    29.68R
RED OAK *      MOSUNNY   64  50  59 NE9G17    29.70F
SHENANDOAH *   MOSUNNY   66  46  48 N14       29.71F
$$

IAZ047>049-059>061-072>074-084-242000-
   CENTRAL IOWA

CITY           SKY/WX    TMP DP  RH WIND       PRES   REMARKS
AMES           CLOUDY    60  52  74 N12       29.69F
ANKENY *       PTSUNNY   59  52  77 N13       29.70S
BOONE *        PTSUNNY   59  52  77 N14       29.69F
CHARITON *     CLOUDY    59  52  77 NW13      29.67S
DES MOINES     CLOUDY    59  49  69 N13       29.69S
GRINNELL*      PTSUNNY   57  49  75 N10       29.68S
KNOXVILLE *    CLOUDY    57  48  72 N10       29.66S
MARSHALLTOWN   CLOUDY    59  51  75 N12       29.67S
NEWTON *       PTSUNNY   59  50  72 NE10      29.66F
PELLA *        PTSUNNY   61  50  66 N10       29.68S
PERRY *        CLOUDY    60  51  70 N13G18    29.70S
$$

IAZ004>006-015-016-023>025-035-036-242000-
   NORTH CENTRAL IOWA

CITY           SKY/WX    TMP DP  RH WIND       PRES   REMARKS
ALGONA *       PTSUNNY   57  48  72 N10G17    29.73S
CLARION *      CLOUDY    59  52  77 N12       29.71S
ESTHERVILLE    PTSUNNY   57  47  69 N9        29.72F
FORT DODGE *   CLOUDY    57  48  72 N6        29.72F
MASON CITY     CLOUDY    57  48  72 N10       29.72S
FOREST CITY *  PTSUNNY   63  43  48 N7        29.71F
WEBSTER CITY * PTSUNNY   61  50  67 NE8       29.68F
IOWA FALLS *   CLOUDY    59  52  77 N14       29.70S
$$

IAZ007>011-017>019-026>030-037>042-050>054-066-242000-
   NORTHEAST IOWA

CITY           SKY/WX    TMP DP  RH WIND       PRES   REMARKS
CEDAR RAPIDS   CLOUDY    59  51  75 N13       29.63F
CHARLES CITY * PTSUNNY   61  50  67 N13       29.68F
CLINTON *      CLOUDY    58  52  80 NE14      29.63R
DECORAH *      CLOUDY    55  48  76 NE9       29.67S
DUBUQUE        CLOUDY    57  49  74 N9        29.63F
MONTICELLO *   CLOUDY    57  50  77 N10       29.64S
OELWEIN *      CLOUDY    55  50  82 NE17      29.67S
WATERLOO       CLOUDY    58  48  69 N14       29.66F
$$

IAZ064-065-067-068-078-242000-
   EAST CENTRAL IOWA

CITY           SKY/WX    TMP DP  RH WIND       PRES   REMARKS
DAVENPORT      CLOUDY    59  50  72 N12       29.62S
IOWA CITY      CLOUDY    61  50  67 N13       29.65S
MT. PLEASANT * LGT RAIN  57  54  90 N8        29.62S
MUSCATINE *    CLOUDY    61  50  67 N15       29.63R
QUAD CITIES    CLOUDY    62  50  64 N9        29.60S
$$

IAZ062-063-075>077-085>089-095>099-242000-
   SOUTHEAST IOWA

CITY           SKY/WX    TMP DP  RH WIND       PRES   REMARKS
BURLINGTON     HVY RAIN  57  52  83 NW7       29.59S
FAIRFIELD *    CLOUDY    59  52  77 N13       29.63S
FORT MADISON * MOSUNNY   64  52  63 N8        29.60F
KEOKUK *       MOSUNNY   63  52  67 N10G17    29.60S
OSKALOOSA *    PTSUNNY   60  50  70 N9        29.65S
CENTERVILLE *    N/A     59  54  82 NW9G16    29.66S
OTTUMWA          N/A     64  51  62 N14       29.63F
WASHINGTON *   CLOUDY    61  52  72 N15G21    29.64R
$$

ABBREVIATIONS USED IN REMARKS
   TC - TEMPERATURES IN CELSIUS
  WCI - WIND CHILL INDEX
   HX - HEAT INDEX
  VSB - VISIBILITY
$$





USA.gov is the U.S. government's official web portal to all federal, state and local government web resources and services.